TimeEST,TemperatureF,Dew PointF,Humidity,Sea Level PressureIn,VisibilityMPH,Wind Direction,Wind SpeedMPH,Gust SpeedMPH,PrecipitationIn,Events,Conditions,WindDirDegrees,DateUTC
12:55 AM,29.8,15.6,56,29.80,10.0,NNW,12.7,21.9,N/A,,Clear,340,2013-03-04 05:55:00
1:55 AM,28.6,16.2,60,29.80,10.0,NNW,9.2,-,N/A,,Clear,330,2013-03-04 06:55:00
2:54 AM,30.2,17.6,60,29.80,10.0,NW,11.5,-,N/A,,Overcast,310,2013-03-04 07:54:00
2:55 AM,29.5,17.2,60,29.80,10.0,NW,11.5,-,N/A,,Overcast,310,2013-03-04 07:55:00
2:59 AM,30.2,17.6,60,29.80,10.0,NW,13.8,-,N/A,,Overcast,320,2013-03-04 07:59:00
3:35 AM,28.4,15.8,59,29.80,10.0,NW,11.5,19.6,N/A,,Mostly Cloudy,320,2013-03-04 08:35:00
3:55 AM,28.0,15.1,58,29.81,10.0,NW,11.5,-,N/A,,Scattered Clouds,320,2013-03-04 08:55:00
4:55 AM,28.4,15.6,59,29.81,10.0,NW,12.7,19.6,N/A,,Scattered Clouds,310,2013-03-04 09:55:00
5:55 AM,28.9,16.2,59,29.82,10.0,NW,12.7,24.2,N/A,,Overcast,310,2013-03-04 10:55:00
6:55 AM,29.3,16.0,58,29.84,10.0,NW,16.1,20.7,N/A,,Overcast,310,2013-03-04 11:55:00
7:55 AM,31.5,16.0,53,29.85,10.0,NW,13.8,21.9,N/A,,Scattered Clouds,310,2013-03-04 12:55:00
8:55 AM,31.8,16.0,52,29.85,10.0,NW,17.3,27.6,N/A,,Partly Cloudy,310,2013-03-04 13:55:00
9:55 AM,34.7,14.9,44,29.85,10.0,WNW,15.0,23.0,N/A,,Partly Cloudy,300,2013-03-04 14:55:00
10:55 AM,37.2,16.0,42,29.85,10.0,WNW,18.4,27.6,N/A,,Clear,300,2013-03-04 15:55:00
11:55 AM,39.0,17.1,41,29.84,10.0,NW,15.0,-,N/A,,Clear,320,2013-03-04 16:55:00
12:55 PM,39.9,17.2,40,29.82,10.0,WNW,16.1,24.2,N/A,,Clear,300,2013-03-04 17:55:00
1:55 PM,41.2,18.1,40,29.81,10.0,NW,19.6,25.3,N/A,,Clear,320,2013-03-04 18:55:00
2:55 PM,41.9,18.5,39,29.81,10.0,WNW,18.4,26.5,N/A,,Clear,300,2013-03-04 19:55:00
3:55 PM,41.7,18.5,39,29.81,10.0,NW,18.4,25.3,N/A,,Clear,310,2013-03-04 20:55:00
4:55 PM,40.3,18.0,41,29.82,10.0,NW,13.8,24.2,N/A,,Clear,310,2013-03-04 21:55:00
5:55 PM,37.6,18.1,45,29.84,10.0,WNW,15.0,19.6,N/A,,Clear,300,2013-03-04 22:55:00
6:55 PM,36.5,18.1,47,29.87,10.0,WNW,13.8,-,N/A,,Clear,300,2013-03-04 23:55:00
7:55 PM,35.4,18.7,51,29.89,10.0,WNW,15.0,23.0,N/A,,Clear,290,2013-03-05 00:55:00
8:55 PM,34.2,19.2,54,29.90,10.0,WNW,10.4,-,N/A,,Partly Cloudy,300,2013-03-05 01:55:00
9:55 PM,32.7,19.6,58,29.92,10.0,West,11.5,-,N/A,,Clear,280,2013-03-05 02:55:00
10:55 PM,31.8,20.1,62,29.92,10.0,WNW,10.4,-,N/A,,Clear,290,2013-03-05 03:55:00
11:55 PM,31.8,20.3,62,29.94,10.0,NW,10.4,-,N/A,,Mostly Cloudy,310,2013-03-05 04:55:00